STARLINK-11633, 63317

Orbit data source: Space-Track

STARLINK-11633, 63317 is a payload satellite owned by SpaceX/Seattle (US) in LEO that was launched on Tue, 18 Mar 2025 UTC via an FALCON 9 launch vehicle from the Air Force Eastern Test Range (AFETR). Payload-class satellites include a variety of spacecraft equipped with specific instruments for various scientific and technological missions. These include communications satellites like Starlink; space stations such as the ISS; scientific satellites like the Hubble; Earth observation satellites from companies like Planet Labs, Umbra, and HawkEye 360; GPS; miniature CubeSats for education and research; and military/defense satellites.

Loading next visibility...
Identifier
63317, 2025-057L
Orbit
LEO
Last TLE update
18 hours ago
Origin
Manufacturer
SpaceX/Seattle
Mission
Operational Commercial Communications
Bus & Motor
STARLINK V2M, Unknown motor
Mass
730 kg wet, ~700 kg dry
Launch date (UTC)
2025-03-18 (4 months ago)
Launch vehicle
FALCON 9
Launch site
Air Force Eastern Test Range (AFETR)
Object type
Payload
Rocket body
Debris
Shape & HBR
Box + 2 Pan, 29 m
Radar Cross Section
36.964 m², Large (>1 m²)

Expand to show TLE details & history

TLE from 18 hours ago
0 STARLINK-11633
1 63317U 25057L   25183.11819507  .00226675  00000-0  17149-2 0  9992
2 63317  42.9979 334.4957 0001979 293.1496  66.9163 15.70942098 17775
Epoch: 2025-07-02T02:50Z
TLE epoch observation values (Epoch: 2025-07-02T02:50:12.054Z)
Latitude
Longitude
11.54159°
Altitude
355.452 km
Speed
7.698 km/s
True Right ascension
22h 17m 58s
True Declination
0° 00' 00"
Sunlit
Object was in full shadow at epoch
Visualization orbit readout
Latitude
4.18737°
Longitude
11.41053°
Altitude
354.078 km
Speed
7.699 km/s
Apparent Right ascension
21h 42m 30s
Apparent Declination
-17° 24' 19"
Sunlit
Object is in full shadow
Visualization observer readout
Local Sidereal Time
08:54:25
Azimuth
331.726° NNW
Elevation
-65.198°
Doppler factor
1
Orbital elements
Apogee altitude
359.518 km
Perigee altitude
356.852 km
Semi-major axis
6,736.322 km
Eccentricity
0.0002
Inclination
42.9979°
RAAN
334.4957°
Arg. of periapsis
293.1496°
True anomaly
Unknown
Mean anomaly
66.9163°
Eccentric anomaly
Unknown
Mean motion
3.92563 °/min
Orbital period
91.71 mins
BSTAR
0.0017149
Loading maneuver chart data...
Loading SW <> Apogee altitude chart data...
Loading historical data...
Loading historical data...
Loading historical data...
Loading historical data...
Loading historical data...
Loading historical data...
Loading historical data...

STARLINK-11633 Visibility forecast

Observer location: undefined°, undefined°

Span
Click to sort rows by Start time (UTC) header in descending order
Start Az.
Max El. time (UTC)
Max El. Az.
Max El.
End time (UTC)
End Az.
4 mins2025-07-03 14:12:16.352Z254.831° W2025-07-03 14:13:16.352Z271.917° WNW44.308°2025-07-03 14:16:16.352Z71.324° E
4 mins2025-07-03 15:48:16.352Z300.075° NW2025-07-03 15:49:16.352Z334.121° NNW32.687°2025-07-03 15:52:16.352Z72.048° E
4 mins2025-07-03 17:24:16.352Z292.361° WNW2025-07-03 17:26:16.352Z81.142° E41.772°2025-07-03 17:28:16.352Z102.855° ESE
|